This is the latest recevied weather packets stored in our database for station/object W8UFO-13. If no packets are shown the sender has not sent any weather packets the latest 10 day(s).
| Time | Temp. | Humidity | Pressure | Rain* | Wind** | Luminosity | Snow |
|---|---|---|---|---|---|---|---|
| 1777929857 | 26.11° C | 44% | 1014.1 hPa | 0 mm | - | - | - |
| 1777929557 | 26.11° C | 48% | 1014.1 hPa | 0 mm | - | - | - |
| 1777929257 | 26.11° C | 46% | 1014.2 hPa | 0 mm | - | - | - |
| 1777928957 | 26.11° C | 47% | 1014.3 hPa | 0 mm | - | - | - |
| 1777928657 | 26.11° C | 46% | 1014.5 hPa | 0 mm | - | - | - |
| 1777928357 | 26.11° C | 47% | 1014.4 hPa | 0 mm | - | - | - |
| 1777928057 | 26.11° C | 50% | 1014.4 hPa | 0 mm | - | - | - |
| 1777927757 | 26.11° C | 49% | 1014.5 hPa | 0 mm | - | - | - |
| 1777927457 | 26.11° C | 48% | 1014.6 hPa | 0 mm | - | - | - |
| 1777927158 | 26.11° C | 50% | 1014.5 hPa | 0 mm | - | - | - |
| 1777926857 | 26.11° C | 49% | 1014.7 hPa | 0 mm | - | - | - |
| 1777926557 | 26.11° C | 48% | 1014.6 hPa | 0 mm | - | - | - |
| 1777926257 | 26.11° C | 50% | 1014.6 hPa | 0 mm | - | - | - |
| 1777925957 | 26.11° C | 49% | 1014.8 hPa | 0 mm | - | - | - |
| 1777925657 | 25.56° C | 48% | 1014.8 hPa | 0 mm | - | - | - |
| 1777925357 | 25.56° C | 49% | 1014.9 hPa | 0 mm | - | - | - |
| 1777925057 | 26.11° C | 49% | 1014.9 hPa | 0 mm | - | - | - |
| 1777924757 | 25.56° C | 51% | 1015 hPa | 0 mm | - | - | - |
| 1777924457 | 25.56° C | 49% | 1015.2 hPa | 0 mm | - | - | - |
| 1777924157 | 25.56° C | 49% | 1015.3 hPa | 0 mm | - | - | - |
| 1777923857 | 25.56° C | 49% | 1015.4 hPa | 0 mm | - | - | - |
| 1777923557 | 25.56° C | 50% | 1015.5 hPa | 0 mm | - | - | - |
| 1777923257 | 25.56° C | 50% | 1015.5 hPa | 0 mm | - | - | - |
| 1777922957 | 25.56° C | 49% | 1015.5 hPa | 0 mm | - | - | - |
| 1777922657 | 25.56° C | 52% | 1015.6 hPa | 0 mm | - | - | - |
* Rain latest hour (hover to see other rain measurements)
** Current wind speed in m/s (hover to see current wind gust speed)